Weather History for Port Angeles, WA

Change the Weather History Date:

Wednesday, October 30, 2013

  Actual Average Record
Temperature  
Mean Temperature 44 °F -  
Max Temperature 54 °F 52 °F 73 °F (1958)
Min Temperature 36 °F 40 °F 27 °F (2006)
Degree Days  
Heating Degree Days 20    
Moisture  
Dew Point 40 °F    
Average Humidity 79    
Maximum Humidity 93    
Minimum Humidity 59    
Precipitation  
Precipitation 0.01 in - - ()
Sea Level Pressure  
Sea Level Pressure 30.08 in    
Wind  
Wind Speed 4 mph (SW)    
Max Wind Speed 9 mph    
Max Gust Speed -    
Visibility 10 miles    
Events Rain    
Averages and records for this station are not official NWS values.
T = Trace of Precipitation, MM = Missing Value Source: NWS Daily Summary

Daily Weather History Graph

Daily Weather History Graph

Search for Another Location

Airport:

Trip Planner

Search our weather history database for the weather conditions in past years. The results will help you decide how hot, cold, wet, or windy it might be!

Date:

Astronomy

Oct. 30, 2013 Rise Set
Actual Time 7:56 AM PDT 5:57 PM PDT
Civil Twilight 7:24 AM PDT 6:30 PM PDT
Nautical Twilight 6:47 AM PDT 7:06 PM PDT
Astronomical Twilight 6:11 AM PDT 7:42 PM PDT
Moon 3:33 AM PDT (10/30) 4:01 PM PDT (10/30)
Length of Visible Light 11h 06m
Length of Day
10h 01m
Waning Crescent, 16% of the Moon is Illuminated
Oct 30
Waning Crescent
Nov 3
New
Nov 9
First Quarter
Nov 17
Full
Nov 25
Last Quarter

Hourly Weather History & Observations

Time (PDT) Temp. Windchill Dew Point Humidity Pressure Visibility Wind Dir Wind Speed Gust Speed Precip Events Conditions
12:53 AM 36.0 °F 29.6 °F 32.0 °F 86% 30.04 in 10.0 mi SW 8.1 mph - N/A   Clear
1:53 AM 39.0 °F - 33.1 °F 79% 30.04 in 10.0 mi Calm Calm - N/A   Clear
2:53 AM 41.0 °F 36.4 °F 33.1 °F 73% 30.05 in 10.0 mi SW 6.9 mph - N/A   Clear
3:53 AM 42.1 °F 36.6 °F 33.1 °F 70% 30.05 in 10.0 mi SW 9.2 mph - N/A   Clear
4:53 AM 44.1 °F 40.1 °F 34.0 °F 68% 30.06 in 10.0 mi WSW 6.9 mph - N/A   Clear
5:53 AM 42.1 °F - 35.1 °F 76% 30.06 in 10.0 mi Calm Calm - N/A   Partly Cloudy
6:53 AM 41.0 °F - 35.1 °F 79% 30.07 in 10.0 mi Calm Calm - N/A   Partly Cloudy
7:53 AM 42.1 °F - 37.0 °F 82% 30.08 in 10.0 mi Calm Calm - N/A   Overcast
8:53 AM 44.1 °F - 39.0 °F 82% 30.09 in 10.0 mi Calm Calm - N/A   Overcast
9:53 AM 46.9 °F - 41.0 °F 80% 30.09 in 10.0 mi WNW 3.5 mph - N/A   Mostly Cloudy
10:53 AM 52.0 °F - 37.9 °F 59% 30.09 in 10.0 mi Calm Calm - N/A   Scattered Clouds
11:53 AM 51.1 °F - 37.0 °F 59% 30.11 in 10.0 mi Variable 3.5 mph - N/A   Overcast
12:53 PM 51.1 °F - 41.0 °F 68% 30.11 in 10.0 mi NNE 3.5 mph - N/A   Overcast
1:53 PM 52.0 °F - 43.0 °F 71% 30.09 in 10.0 mi Calm Calm - N/A   Overcast
2:53 PM 53.1 °F - 44.1 °F 71% 30.08 in 10.0 mi NE 3.5 mph - N/A   Overcast
3:53 PM 53.1 °F - 42.1 °F 66% 30.09 in 10.0 mi SE 5.8 mph - N/A   Overcast
4:53 PM 51.1 °F - 43.0 °F 74% 30.09 in 10.0 mi Calm Calm - 0.00 in   Overcast
5:53 PM 48.0 °F - 45.0 °F 89% 30.10 in 10.0 mi Calm Calm - 0.00 in Rain Light Rain
6:53 PM 46.9 °F - 45.0 °F 93% 30.09 in 10.0 mi Calm Calm - 0.01 in   Overcast
7:53 PM 48.0 °F - 46.0 °F 93% 30.08 in 10.0 mi Calm Calm - N/A   Overcast
8:53 PM 48.0 °F - 45.0 °F 89% 30.07 in 10.0 mi Calm Calm - N/A   Overcast
9:53 PM 46.9 °F - 45.0 °F 93% 30.06 in 10.0 mi SW 4.6 mph - 0.00 in Rain Light Rain
10:53 PM 46.9 °F - 45.0 °F 93% 30.06 in 10.0 mi South 3.5 mph - 0.00 in   Overcast
11:53 PM 46.9 °F - 45.0 °F 93% 30.05 in 10.0 mi SW 3.5 mph - 0.00 in   Overcast